Powrót do katalogu

FENGYUN 1C DEB

AktywnyPO
NORAD 30128·DEBRIS·🇨🇳 China

Wystrzelony May 10, 1999 z Taiyuan Satellite Launch Center

Loading…

Następne Przeloty (najbliższe 24 godziny)

TLE

ŚwieżeSource: Space-Track

Epoka: Sep 14, 2026, 08:28 UTC

1 30128U 99025SH  26257.35295741  .00009513  00000-0  21978-2 0  9994
2 30128  96.9874 214.1271 0098390 335.3188 177.4544 14.52400576 12916

Śledź FENGYUN 1C DEB w czasie rzeczywistym z AllMySat

Download on the App Store